星链-34454 (STARLINK-34454)

导读 | 豆包AI

STARLINK-34454是美国SpaceX星链(Starlink)项目的低轨卫星,该项目旨在为全球提供高速互联网服务。卫星于2025年6月13日发射,作为星链星座扩容的一部分,加入近地轨道部署网络,延续星链大规模组网节奏,助力提升星座覆盖密度与服务容量,进一步完善全球卫星互联网的通信服务能力。

基本信息
目录编号:
64357
目录名称:
STARLINK-34454
国际标识:
2025-126P
轨道中心:
EARTH
卫星名称:
星链-34454
卫星全名:
星链-34454 (STARLINK-34454)
卫星状态:
在轨 (已飞行320 天)
发射日期:
2025-06-13 UTC
国别 :
美国 (US)
星等 :
--
轨道信息
数据来源 国际轨道数据
星历时间: 2026-04-29T04:50:59+0800
17小时前
查看轨道信息
半长轴: 6950.241km
偏心率: 0.0003051
轨道倾角: 70.000°
近地点辐角 273.442°
升交点赤经 268.115°
平近点角 86.639°
近地点: 569.983km
远地点: 574.225km
周期: 96.108分钟
每日圈数: 14.983147
详细信息
固有亮度:
5
最大亮度:
2.5
卫星平台:
Starlink V1.0
覆盖范围:
全球
运营商:
太空探索技术公司
运营商所在国:
美国
制造商(研发单位):
太空探索技术公司
制造商所在国:
美国
使用方式:
暂无
卫星简介
Starlink 计划是 SpaceX 推出的全球卫星互联网项目,通过发射低轨道卫星,为全球尤其是偏远地区提供高速、低延迟的互联网服务。自 2019 年起,Starlink 已部署数千颗卫星,旨在缩小全球数字鸿沟,推动互联网普及。该项目还为军事、航空等行业提供通信支持,带来广泛经济效益。
2D轨道图
3D轨道图
轨道高度分析图
轨道倾角分析图
轨道综合分析图
查看轨道综合分析图